Simultaneous Nadir Overpasses (SNOs) Predictions

Prediction of SNOs between METOP-B and TERRA Satellite Orbit:

Table of predicted SNOs for the next 14.0 days since TLE Epoch: 10/5/2014
Index Date (METOP-B) Time (METOP-B) Lat,Lon (METOP-B) SZA (METOP-B ) Date (TERRA) Time (TERRA) Lat,Lon (TERRA) SZA (TERRA ) Distance(km) Time Diff (sec)
1 10/05/2014 05:32:42 -81.34, -35.56 90.86 10/05/2014 05:33:14 -81.34, -35.43 90.83 2.08 32
2 10/05/2014 06:23:22 81.35, 132.26 89.22 10/05/2014 06:22:40 81.35, 132.33 89.21 1.25 42
3 10/08/2014 01:07:01 -81.34, 30.96 89.75 10/08/2014 01:07:31 -81.33, 30.78 89.76 3.35 30
4 10/08/2014 01:57:41 81.35,-161.22 90.33 10/08/2014 01:56:56 81.36,-161.12 90.32 1.91 45
5 10/10/2014 20:41:20 -81.34, 97.41 88.66 10/10/2014 20:41:46 -81.35, 97.48 88.64 1.28 26
6 10/
